Showing default

QIANFAN-7, 60385

Orbit data source: Space-Track

QIANFAN-7, 60385 is a Chinese payload satellite in LEO that was launched on Tue, 06 Aug 2024 UTC via a CHANG ZHENG 6A launch vehicle from the Taiyaun Space Center, China (TSC). Payload-class satellites include a variety of spacecraft equipped with specific instruments for various scientific and technological missions. These include communications satellites like Starlink; space stations such as the ISS; scientific satellites like the Hubble; Earth observation satellites from companies like Planet Labs, Umbra, and HawkEye 360; GPS; miniature CubeSats for education and research; and military/defense satellites.

Loading next visibility...
Identifier
60385, 2024-140G
Orbit
LEO
Country
Flag of CNCN / PRC
Related business
Manufacturer
SECM
Mission
Partially operational Commercial Communications
Bus & Motor
QIANFAN, Unknown motor
Mass
267 kg wet, ~267 kg dry
Launch date (UTC)
2024-08-06 (2 years ago)
Launch vehicle
CHANG ZHENG 6A
Launch site
Taiyaun Space Center, China (TSC)
Object type
Payload
Rocket body
Debris
Shape & HBR
Box + 1 Pan, 5.0 m
Radar Cross Section
13.200 m², Large (>1 m²)

Expand to show TLE details & history
Last TLE update: 7 hours ago

TLE from 7 hours ago
0 QIANFAN-7
1 60385U 24140G   26118.83159395  .00000310  00000-0  11964-3 0  9992
2 60385  88.9726 277.5841 0013068 315.0944  44.9192 14.27795597 89958
Epoch: 2026-04-28T19:57Z
TLE epoch observation values (Epoch: 2026-04-28T19:57:29.717Z)
Latitude
-0.00004°
Longitude
121.40902°
Altitude
795.536 km
Speed
7.459 km/s
True Right ascension
18h 30m 20s
True Declination
0° 00' 00"
Sunlit
Object was in full shadow at epoch
Visualization orbit readout
Latitude
Unknown
Longitude
Unknown
Altitude
Unknown
Speed
Unknown
Apparent Right ascension
Unknown
Apparent Declination
Unknown
Sunlit
N/A
Visualization observer readout
Local Sidereal Time
10:05:43
Azimuth
Unknown
Elevation
Unknown
Doppler factor
Unknown
Orbital elements
Apogee altitude
805.424 km
Perigee altitude
786.674 km
Semi-major axis
7,174.186 km
Eccentricity
0.00131
Inclination
88.9726°
RAAN
277.5841°
Arg. of periapsis
315.0944°
True anomaly
45.02506°
Mean anomaly
44.9192°
Eccentric anomaly
44.97212°
Mean motion
3.57178 °/min
Orbital period
100.79 mins
BSTAR
0.00011964
Loading maneuver chart data...
Computing Atmospheric mass density...
Loading historical data...
Loading historical data...
Loading historical data...
Loading historical data...
Loading historical data...
Loading historical data...
Loading historical data...

Documentation

Showing up to 5 results
|